Location: Losili
(4.4086°N, 32.7049°E)
Time: 13:26:40
(UTC+00:00)

Cosmos 2322 - Pass Details

Date: 18 September 2019
Orbit: 839 x 856 km, 71.0° (Epoch: 20 October)

Event Time Altitude Azimuth Distance (km) Brightness Sun altitude
Rises 17:10:02 0° 355° (N) 3,409 7.0 -21.4°
Reaches altitude 10° 17:12:35 10° 2° (N) 2,473 6.1 -22.1°
Enters shadow 17:17:17 44° 52° (NE) 1,163 4.0 -23.2°
